Regional Weather Roundup
Issued by NWS

Home | Current Version | Previous Version | Text Only | Print | Product List | Glossary Off
Versions: 1 2 3 4 5 6 7 8 9 10 11 12 13 14 15 16 17 18 19 20 21 22 23 24 25 26 27 28 29 30 31 32 33 34 35 36 37 38 39 40 41 42 43 44 45 46 47 48 49 50

499
ASUS43 KDTX 260610
RWRMI
MICHIGAN HOURLY REGIONAL WEATHER ROUNDUP
NATIONAL WEATHER SERVICE DETROIT/PONTIAC MI
200 AM EDT TUE SEP 26 2017

NOTE: "FAIR" INDICATES FEW OR NO CLOUDS BELOW 12,000 FEET WITH NO
SIGNIFICANT WEATHER AND/OR OBSTRUCTION TO VISIBILITY.

MIZ047>049-052>055-059>063-066>070-074>076-081>083-260700-
SOUTHEAST LOWER MICHIGAN

CITY           SKY/WX    TMP DP  RH WIND       PRES   REMARKS
ADRIAN         PTCLDY    65  61  87 CALM      30.00S
6HR MIN TEMP:  64; 6HR MAX TEMP:  79;

ALMA           CLEAR     61  57  87 CALM      29.98S
ANN ARBOR      CLOUDY    64  63  96 CALM      29.99S
BAD AXE        CLEAR     68  63  83 CALM      30.00S
CARO           CLEAR     64  62  93 CALM      29.99S FOG
DETROIT CITY   CLOUDY    72  66  81 CALM      29.99S
6HR MIN TEMP:  72; 6HR MAX TEMP:  80;

DETROIT        CLOUDY    73  69  87 N3        29.99S
6HR MIN TEMP:  72; 6HR MAX TEMP:  80;

FLINT          CLEAR     63  60  90 CALM      30.00R
6HR MIN TEMP:  63; 6HR MAX TEMP:  80;

GROSSE ILE     CLOUDY    74  69  83 CALM      29.98R
6HR MIN TEMP:  72; 6HR MAX TEMP:  77;

HILLSDALE      MOCLDY    64  61  88 CALM      30.00S
HOWELL         CLEAR     68  62  80 CALM      30.00S
6HR MIN TEMP:  68; 6HR MAX TEMP:  79;


CITY           SKY/WX    TMP DP  RH WIND       PRES   REMARKS
JACKSON        CLEAR     65  62  90 CALM      30.00S
6HR MIN TEMP:  64; 6HR MAX TEMP:  78;

LAMBERTVILLE   CLOUDY    70  66  89 CALM      29.98S
6HR MIN TEMP:  69; 6HR MAX TEMP:  75;

LANSING        CLEAR     71  60  68 CALM      30.00S
6HR MIN TEMP:  70; 6HR MAX TEMP:  77;

LAPEER         FAIR      64  63  96 CALM      30.00S
6HR MIN TEMP:  64; 6HR MAX TEMP:  78;

MASON          CLEAR     67  62  83 CALM      30.00S
MONROE         CLOUDY    70  67  90 CALM      29.98R
6HR MIN TEMP:  70; 6HR MAX TEMP:  77;

MT. CLEMENS    MOCLDY    68  68 100 N3        29.98S
6HR MIN TEMP:  67; 6HR MAX TEMP:  76;

PONTIAC        PTCLDY    67  64  90 CALM      30.00S
6HR MIN TEMP:  67; 6HR MAX TEMP:  82;

PORT HOPE        N/A     75  64  68 CALM      29.97S
6HR MIN TEMP:  70; 6HR MAX TEMP:  76;

PORT HURON     FOG       64  63  94 CALM      30.00S VSB 1/4
TRI CITIES     CLEAR     72  64  76 S7        29.98S
6HR MIN TEMP:  68; 6HR MAX TEMP:  76;

MIDLAND        FOG       63  63 100 CALM      29.97S VSB 1/4
6HR MIN TEMP:  63; 6HR MAX TEMP:  75;

TROY           CLOUDY    73  64  73 CALM      30.02R
SAGINAW HB     CLEAR     70  61  73 S3        29.98S
$$
MIZ043>046-050>051-056>058-064>065-071>073-077>080-260700-
SOUTHWEST LOWER MICHIGAN

CITY           SKY/WX    TMP DP  RH WIND       PRES   REMARKS
BATTLE CREEK   CLEAR     68  60  75 CALM      30.00R
6HR MIN TEMP:  67; 6HR MAX TEMP:  79;

BENTON HARBOR  CLEAR     60  57  89 CALM      29.96S
6HR MIN TEMP:  60; 6HR MAX TEMP:  75;

BIG RAPIDS     CLEAR     59  55  87 CALM      29.98S
6HR MIN TEMP:  59; 6HR MAX TEMP:  73;

COLDWATER      CLEAR     65  64  96 CALM      29.99S
6HR MIN TEMP:  63; 6HR MAX TEMP:  74;

FREMONT        FAIR      63  59  87 E3        29.96S
HOLLAND        CLEAR     62  58  86 CALM      29.97S
6HR MIN TEMP:  62; 6HR MAX TEMP:  76;

GRAND RAPIDS   CLEAR     63  60  90 E3        29.97F
6HR MIN TEMP:  63; 6HR MAX TEMP:  81;

IONIA          FAIR      63  56  78 SE6       29.98R
6HR MIN TEMP:  62; 6HR MAX TEMP:  78;

KALAMAZOO      CLEAR     64  58  80 SE3       29.98S
6HR MIN TEMP:  64; 6HR MAX TEMP:  79;

LUDINGTON      CLEAR     58  57  96 CALM      29.94S
6HR MIN TEMP:  56; 6HR MAX TEMP:  68;

MARSHALL       CLEAR     64  64  97 CALM      29.99S
6HR MIN TEMP:  64; 6HR MAX TEMP:  78;

MOUNT PLEASANT CLEAR     65  64  96 CALM      29.97S FOG
6HR MIN TEMP:  64; 6HR MAX TEMP:  74;

MUSKEGON       CLEAR     66  59  78 CALM      29.96S
6HR MIN TEMP:  64; 6HR MAX TEMP:  77;

SOUTH HAVEN    CLEAR     63  60  90 CALM      29.96S
$$
MIZ016>042-260700-
NORTHERN LOWER MICHIGAN

CITY           SKY/WX    TMP DP  RH WIND       PRES   REMARKS
ALPENA         CLEAR     63  62  97 CALM      29.98S
6HR MIN TEMP:  62; 6HR MAX TEMP:  74;

BEAVER ISLAND    N/A     61  60  99 CALM      29.96S FOG
6HR MIN TEMP:  59; 6HR MAX TEMP:  69;

BELLAIRE       CLEAR     59  58  96 CALM      29.96F FOG
6HR MIN TEMP:  59; 6HR MAX TEMP:  71;

CADILLAC       CLEAR     59  53  81 CALM      29.99F
CHARLEVOIX     CLEAR     64  62  93 CALM      29.99S
FRANKFORT      CLEAR     61  59  95 CALM      29.94S
GAYLORD        CLEAR     62  58  86 CALM      30.00S
6HR MIN TEMP:  60; 6HR MAX TEMP:  74;

GRAYLING       CLEAR     56  53  89 CALM      30.00S
6HR MIN TEMP:  55; 6HR MAX TEMP:  74;

HARBOR SPRINGS CLEAR     63  62  95 CALM      29.96S
HOUGHTON LAKE  CLEAR     60  58  92 CALM      30.00S
6HR MIN TEMP:  59; 6HR MAX TEMP:  74;

MANISTEE       CLEAR     61  58  90 E6        29.95S
OSCODA         CLEAR     66  64  93 CALM      29.97S
6HR MIN TEMP:  65; 6HR MAX TEMP:  74;

PELLSTON       CLEAR     59  57  93 CALM      29.97R
6HR MIN TEMP:  58; 6HR MAX TEMP:  74;

ROGERS CITY    CLEAR     71  64  80 SW6       29.98S
TRAVERSE CITY  CLEAR     65  59  81 CALM      29.94F
6HR MIN TEMP:  64; 6HR MAX TEMP:  77;

$$
MIZ007>008-015-260700-
EASTERN UPPER MICHIGAN

CITY           SKY/WX    TMP DP  RH WIND       PRES   REMARKS
KINROSS        PTCLDY    64  62  93 E6        29.97S
6HR MIN TEMP:  63; 6HR MAX TEMP:  75;

MACKINAC ISLAN CLEAR     66  66 100 SW3       29.96R
6HR MIN TEMP:  66; 6HR MAX TEMP:  76;

NEWBERRY       CLEAR     58  57  97 CALM      29.96S FOG
6HR MIN TEMP:  58; 6HR MAX TEMP:  68;

S. S. MARIE    CLEAR     67  64  90 E3        29.96S
6HR MIN TEMP:  67; 6HR MAX TEMP:  73;

MUNISING         N/A     62  62 100 N6        29.97F
6HR MIN TEMP:  62; 6HR MAX TEMP:  66;

$$
MIZ004>006-011>014-085-260700-
CENTRAL UPPER MICHIGAN

CITY           SKY/WX    TMP DP  RH WIND       PRES   REMARKS
MANISTIQUE     HAZE      58  52  80 CALM      29.95S VSB<1/4
6HR MIN TEMP:  58; 6HR MAX TEMP:  66;

MENOMINEE      CLEAR     69  63  81 NW5       29.93F
6HR MIN TEMP:  68; 6HR MAX TEMP:  74;

SAWYER-GWINN   CLOUDY    58  57  97 NE7       29.98F
6HR MIN TEMP:  58; 6HR MAX TEMP:  64;

$$
MIZ001>003-009>011-084-260700-
WESTERN UPPER MICHIGAN

CITY           SKY/WX    TMP DP  RH WIND       PRES   REMARKS
IRON MOUNTAIN  LGT RAIN  65  63  93 SW3       29.95S
6HR MIN TEMP:  65; 6HR MAX TEMP:  77; 6HR PCP:  0.13;

HOUGHTON       CLOUDY    56  53  90 CALM      29.98S
6HR MIN TEMP:  54; 6HR MAX TEMP:  62; 6HR PCP:  0.86;

COPPER HARBOR    N/A     58  56  93 E8        29.98F
6HR MIN TEMP:  57; 6HR MAX TEMP:  60; 6HR PCP:  0.42;

IRONWOOD       CLOUDY    57  56  96 N3        29.98F
6HR MIN TEMP:  57; 6HR MAX TEMP:  58; 6HR PCP:  0.25;

$$

ABBREVIATIONS USED IN REMARKS
   TC - TEMPERATURE IN CELSIUS
  WCI - WIND CHILL INDEX
   HX - HEAT INDEX
  VSB - VISIBILITY





USA.gov is the U.S. government's official web portal to all federal, state and local government web resources and services.